Location: Ocean City
(38.3360°N, 75.0850°W)
Time: 15:42:56
(UTC-04:00)

Max Valier Satellite - Pass Details

Date: 25 May 2019
Orbit: 491 x 508 km, 97.4° (Epoch: 24 June)

Event Time Altitude Azimuth Distance (km) Brightness Sun altitude
Exits shadow 23:06:11 11° 253° (WSW) 1,632 ? -25.1°
Maximum altitude 23:07:07 12° 268° (W) 1,583 ? -25.2°
Drops below altitude 10° 23:08:35 10° 292° (WNW) 1,712 ? -25.4°
Sets 23:11:53 0° 324° (NW) 2,607 ? -25.7°
